Location: 22
(39.7117°N, 89.5929°W)
Time: 05:05:49
(UTC-05:00)

Vanguard 1 Rocket - Pass Details

Date: 07 February 2023
Orbit: 652 x 4223 km, 34.3° (Epoch: 26 March)

Event Time Altitude Azimuth Distance (km) Brightness Sun altitude
Rises 16:20:32 0° 280° (W) 5,814 12.4 10.5°
Reaches altitude 10° 16:23:48 10° 275° (W) 5,192 12.3 9.9°
Maximum altitude 16:39:56 52° 206° (SSW) 4,182 11.4 7.2°
Drops below altitude 10° 17:04:11 10° 139° (SE) 7,410 11.9 2.9°
Sets 17:10:11 0° 135° (SE) 8,340 12.1 1.9°
